FENGYUN 1C DEB

Satellite information

Favourite Embed

Satellite Type and Status

DEBRISIN ORBIT

Key statistics

Satellite FENGYUN 1C DEB at a glance.

Uptime

9615

Days in orbit

Revolutions

≈ 14.3

Per day

Orbit

SSO

Sun Synchronous Orbit

Inclination

99.4

Latest

Satellite identification and parameters

Extended collection of information and parameters for FENGYUN 1C DEB.

Object identification

Identified? True

Debris? True

Object name: FENGYUN 1C DEB

International designator: 1999-025BPL

Object number (NORAD): 31302

Object ID (CCSDS): 31302

Country: PEOPLES REPUBLIC OF CHINA (PRC)

Current information (Y/N): Y

RCS size: SMALL

Orbital parameters

Period: 100.945 minutes

Inclination: 99.421 deg

SMA: 7181.51 km

Apoapsis: 822.405 km

Periapsis: 784.344 km

RAAN: 273.9674 deg

Eccentricy: 0.00264991

Argument of periapsis: 1.4282 deg

Mean anomaly: 28.3929 deg

Mean motion: 14.26524129 rev/day

Mean motion (dot): 0.00003325 rev/day2

B* drag term: 0.0013946699 1/REarth

Two-line elements (TLE)

Creation date: Aug. 28, 2025, 11:13 p.m.

Reference frame: TEME

Reference center: EARTH

Epoch: Aug. 28, 2025, 12:36 a.m. UTC

TLE line 0: 0 FENGYUN 1C DEB

TLE line 1: 1 31302U 99025BPL 25240.02523814 .00003325 00000-0 13947-2 0 9991

TLE line 2: 2 31302 99.4210 273.9674 0026499 1.4282 28.3929 14.26524129948360

Live tracking on map

Real-time ground track for satellite FENGYUN 1C DEB.

In-orbit conjunctions

A list of the most updated potential collisions computed for object FENGYUN 1C DEB.

Target Orbit TCA Probability of collision Miss distance Type
CZ-6A DEB LEO 2024-10-15 05:15:53 0.0002562431 810.0 (m) DEBRIS

Associated space launch

Chinese polar orbiting meteorological satellite

FENGYUN 1C DEB was lifted into orbit during the mission ‘Long March 4B | Feng Yun 1C’, on board a Long March 4B space rocket.

The launch took place on May 10, 1999, 1:33 a.m. from Launch Complex 7.

For more information about the launch, click the button.

Launch to space Long March 4B | Feng Yun 1C
Long March 4B | Feng Yun 1C

Agency: N/A

Status: Launch Successful

Launch date: May 10, 1999, 1:33 a.m. UTC

Rocket: Long March 4B

Launch pad: Launch Complex 7

Location: Taiyuan Satellite Launch Center, People's Republic of China

...

Latest news about this satellite

There are no fresh news available about this satellite. Check back as we update our databases every day.


Newsletter sign-up

Weekly statistics, charts and insights to help you stay on top of the space industry.